Wind_Speed
10 8 11 13 16 7 7 16 15 18 25 37 39 39 39 38 35 33 31 28 26 23 22 20 19 19 17 20 18 20 20 17 19 17 17 17 18 17 17 16 14 10 10 9 9 9 7
6 9 12 18 14 9 8 18 20 25 40 40 40 40 38 36 34 32 29 27 24 21 19 18 17 15 13 16 13 14 16 15 12 12 13 16 15 13 14 14 13 11 8 7 5 4 5
12 10 19 12 11 11 17 21 26 39 40 40 39 37 36 36 34 31 29 26 25 21 16 15 13 11 13 15 14 13 13 10 12 10 10 11 13 10 9 9 11 11 7 4 3 2 1
13 15 14 13 12 15 22 27 39 41 40 39 37 36 36 35 33 30 27 24 23 21 18 16 13 10 9 10 10 9 8 7 8 7 7 7 8 8 7 4 5 4 2 4 4 2 2
15 17 14 15 16 22 26 36 41 40 40 37 37 35 34 33 31 29 27 25 22 19 17 14 14 11 8 7 7 5 5 6 6 7 5 5 7 5 7 7 1 2 3 6 4 5 3
16 17 16 17 21 24 34 41 40 38 38 37 34 32 30 27 25 24 22 19 18 16 15 14 11 11 10 8 8 5 6 6 7 9 10 9 3 3 5 6 7 9 8 9 9 6 8
15 16 20 23 24 28 40 41 39 36 36 35 30 26 26 23 19 15 13 14 10 11 9 9 7 7 9 10 8 8 6 7 6 6 5 6 4 5 6 10 10 10 11 11 12 11 9
15 19 22 25 25 33 40 40 38 35 33 32 29 25 21 16 12 9 8 7 4 3 3 2 3 5 8 12 11 9 6 6 5 6 5 6 9 10 11 10 12 10 12 14 16 17 13
20 24 25 26 27 33 38 40 38 36 33 30 27 24 20 17 14 12 9 8 6 7 6 4 5 7 10 13 14 9 7 6 6 8 7 8 9 10 10 11 12 14 13 14 13 15 22
22 26 26 27 27 29 35 37 36 34 31 28 25 22 20 18 16 14 13 12 11 10 11 9 10 11 11 13 14 9 7 8 8 9 8 9 11 13 15 14 12 14 16 16 14 13 17
24 25 27 28 28 28 30 30 32 31 29 26 25 23 21 20 18 18 17 17 16 14 15 15 15 14 15 13 12 10 9 11 12 12 12 12 13 15 18 17 14 14 15 16 16 19 18
25 26 26 27 27 28 27 27 27 28 27 27 25 23 21 21 21 20 19 19 17 17 18 18 17 16 15 14 12 11 12 12 14 16 17 15 14 16 19 21 17 15 13 17 19 20 19
26 28 28 28 26 26 24 23 23 22 22 22 20 18 17 17 18 19 18 18 18 18 17 16 17 16 14 12 15 14 15 18 19 18 17 18 16 18 18 20 17 15 15 18 22 21 23
26 27 27 26 24 23 22 21 18 17 16 17 16 14 11 9 9 12 13 14 14 12 11 13 13 14 14 15 18 21 21 19 19 19 18 19 17 17 18 16 14 16 17 18 22 24 21
28 29 28 25 23 20 19 17 14 14 14 14 16 14 10 10 9 8 9 10 10 11 13 14 16 17 18 21 23 19 16 17 18 16 14 14 17 16 17 14 15 18 20 24 26 30 28
30 29 27 25 23 20 17 15 14 12 12 12 15 15 11 9 10 8 7 7 10 11 12 11 14 15 10 12 10 11 11 13 10 10 10 11 12 14 14 16 18 22 24 31 32 33 34
32 31 30 27 24 21 18 15 13 12 11 11 13 14 13 10 10 8 7 8 6 7 8 9 11 12 11 10 10 9 10 12 10 9 10 10 12 17 19 21 23 24 27 31 34 34 36
33 33 30 29 27 23 20 17 15 12 11 11 13 13 13 13 12 10 8 9 8 8 8 8 9 9 9 11 12 13 12 13 13 14 14 15 16 21 23 26 27 24 25 30 37 38 37
34 34 33 31 28 25 22 20 18 15 13 12 13 14 14 14 13 11 10 9 10 10 10 11 11 12 13 15 17 18 18 18 17 20 22 22 21 21 28 31 32 26 24 32 39 42 43
36 34 33 32 30 27 25 23 22 18 15 14 14 15 15 14 12 10 9 7 8 8 10 12 13 14 17 17 18 20 21 20 21 22 23 25 25 26 26 31 36 29 26 31 40 42 48
38 37 35 33 31 28 27 25 24 21 18 15 14 13 14 13 11 11 10 10 8 7 8 10 11 12 15 17 19 20 23 25 25 25 26 27 27 27 26 31 36 32 35 37 39 36 41
40 39 37 36 35 33 30 28 26 25 22 18 16 14 13 11 12 13 12 10 9 10 11 14 14 17 18 20 20 22 24 25 25 27 29 31 32 37 30 37 41 36 35 37 36 35 39
40 39 38 37 36 35 33 32 31 29 26 23 20 17 16 14 13 14 13 13 13 14 15 17 19 23 24 24 24 25 28 28 29 29 29 32 37 40 39 38 39 29 32 34 36 36 41
41 40 38 37 36 35 35 34 33 30 28 27 23 20 19 18 17 18 18 19 20 20 25 27 25 28 25 27 31 30 30 32 33 33 33 35 38 40 42 40 43 26 37 39 44 42 42
43 42 40 39 38 37 37 36 35 33 31 31 29 26 24 24 23 24 24 25 26 26 29 33 31 31 36 37 37 33 32 34 36 33 31 36 37 37 39 45 48 35 43 47 52 51 49
45 43 41 40 39 38 37 36 36 35 34 34 33 31 30 28 28 29 29 29 31 33 34 37 39 39 43 40 44 38 32 31 30 31 31 32 35 36 39 46 50 41 48 51 55 55 55
44 44 43 42 40 39 38 38 37 36 37 37 37 35 34 32 31 33 34 35 36 38 38 42 42 44 48 45 44 39 36 34 35 32 32 33 35 35 40 44 48 44 48 50 55 61 62
45 45 45 44 42 42 41 39 39 39 37 36 37 38 37 36 37 38 38 38 42 45 46 48 50 50 50 47 45 41 39 38 37 37 36 37 40 42 46 52 51 51 52 52 57 61 62
48 44 45 45 45 44 42 41 40 40 41 40 40 42 44 44 43 42 43 44 48 47 49 53 51 49 49 46 40 41 41 42 42 43 38 43 41 47 47 52 47 50 56 58 59 63 64
Wind_Direction
216 212 206 164 153 163 153 154 166 149 147 142 139 135 132 131 132 132 132 130 137 136 128 118 119 116 111 102 100 97 90 79 78 85 93 93 86 91 96 100 99 92 87 81 87 72 56
199 180 183 172 189 185 173 149 155 147 144 142 136 131 131 132 132 132 135 135 135 135 128 126 125 119 112 100 93 88 90 92 94 98 99 99 95 101 99 102 106 108 95 83 68 50 15
177 170 162 181 183 176 154 156 150 148 145 140 135 135 134 133 133 132 131 130 132 135 136 127 121 124 119 98 86 80 77 77 79 72 85 93 90 80 78 83 72 87 82 116 100 109 71
167 160 178 177 168 156 151 152 149 148 145 141 139 137 137 135 132 130 131 129 128 128 125 119 115 115 101 85 77 71 57 56 60 48 41 56 72 59 34 109 63 27 102 179 133 127 47
157 171 165 162 155 151 151 154 151 148 147 144 143 141 141 139 137 133 129 123 118 113 110 112 106 92 83 87 85 57 36 10 19 14 23 40 23 17 343 331 121 227 26 29 28 10 5
155 154 161 156 148 153 153 155 154 152 153 152 150 148 146 142 139 137 133 125 115 109 106 100 96 85 73 56 56 49 17 3 360 360 10 14 8 322 285 308 355 346 338 329 333 350 345
167 158 155 149 151 152 157 158 158 158 160 160 159 155 155 151 145 139 140 134 116 122 101 93 78 71 51 34 25 23 360 348 350 338 2 336 335 352 347 351 334 330 316 315 316 320 333
173 162 153 150 150 153 161 165 164 162 165 168 169 169 163 157 148 153 160 163 161 172 133 105 31 9 6 360 358 352 343 328 335 310 334 334 349 335 338 334 322 337 319 314 304 304 310
170 163 157 152 151 158 164 166 168 169 170 173 177 179 179 182 191 198 207 216 226 227 252 272 306 323 332 335 331 326 323 323 314 308 328 322 323 333 333 320 317 324 328 315 305 290 293
170 163 159 156 154 158 169 170 173 175 176 182 186 191 194 202 213 221 231 231 238 248 256 269 279 289 302 313 310 308 306 312 312 301 304 310 314 316 316 323 321 308 315 321 319 309 302
168 166 161 160 157 160 169 176 181 184 187 190 195 203 212 219 226 228 229 235 241 245 249 253 260 270 280 287 286 285 290 300 300 291 289 295 305 310 313 311 313 307 310 313 310 312 318
169 165 160 159 162 163 166 173 183 191 197 203 209 217 225 232 234 235 235 239 241 242 247 254 259 265 272 278 270 282 297 303 299 292 286 288 297 309 307 306 310 308 304 305 307 312 315
171 164 160 156 157 158 164 169 177 183 193 201 207 216 225 236 241 241 241 241 239 247 256 256 260 265 261 263 275 283 291 294 292 294 286 281 285 288 289 292 301 304 305 308 307 308 316
172 165 162 159 158 160 163 165 171 175 180 185 188 194 204 214 223 232 238 243 247 253 251 248 252 253 256 266 279 290 292 289 287 286 282 282 278 281 285 291 285 289 299 305 307 308 313
179 175 171 167 166 164 163 163 170 179 185 192 201 206 212 218 220 229 242 252 255 249 247 253 261 264 273 283 284 290 295 300 295 295 289 287 286 292 290 287 293 300 308 310 308 306 308
186 183 181 178 176 172 173 176 184 191 191 198 200 205 210 215 217 226 241 251 257 265 270 273 269 274 274 274 277 285 305 303 311 304 290 291 291 295 300 299 299 305 310 310 308 309 310
193 191 189 188 184 185 186 187 191 200 200 206 206 203 209 212 213 218 226 246 270 272 277 278 266 272 275 270 281 297 310 316 317 311 303 301 302 300 296 296 299 305 308 309 307 309 309
198 196 195 195 195 195 195 198 200 205 209 220 218 212 212 218 219 231 241 246 273 280 274 273 270 263 263 274 282 293 300 310 313 305 301 303 303 300 302 303 303 312 314 309 303 305 308
201 201 200 200 200 202 204 208 211 210 217 231 236 229 226 229 231 236 242 249 260 268 273 272 275 278 276 279 284 290 300 307 307 304 307 306 303 301 304 303 304 311 321 310 304 305 310
204 204 205 205 205 207 210 212 216 216 221 235 237 234 235 237 237 241 249 260 273 278 282 284 290 291 292 291 293 295 294 292 294 296 297 299 303 305 305 303 302 315 314 297 297 303 302
208 209 208 208 209 213 216 217 219 221 224 232 239 240 236 235 240 246 249 257 263 273 276 291 302 301 297 300 298 295 296 299 301 300 300 299 303 301 304 301 301 315 313 308 303 306 305
213 212 213 214 214 214 216 219 224 223 226 229 237 240 241 240 238 245 255 266 279 289 305 314 311 303 303 300 300 304 303 301 300 301 306 311 311 305 312 308 310 323 311 305 308 311 312
216 218 217 218 219 220 220 221 222 222 225 228 231 238 242 245 246 255 265 275 277 277 288 301 301 305 301 295 295 301 304 300 296 295 297 304 305 305 311 311 308 321 307 309 309 311 309
216 218 221 221 221 223 225 226 227 225 227 233 236 241 244 251 255 258 263 272 279 279 287 293 302 307 302 303 297 296 298 296 296 297 300 302 301 304 310 311 307 328 311 312 310 313 316
218 219 221 223 223 223 225 227 229 230 230 233 237 240 244 248 255 261 266 268 274 279 283 284 292 297 308 301 306 296 289 292 291 291 293 299 302 303 308 306 308 324 311 314 311 315 315
220 221 221 223 226 229 230 230 232 234 236 240 242 244 249 254 259 264 269 274 280 283 286 286 286 293 303 298 301 301 292 290 291 293 292 297 301 304 307 308 310 323 313 312 311 314 313
218 221 222 223 226 229 234 237 237 239 242 245 250 252 255 260 262 268 273 276 279 285 282 287 286 289 297 297 300 297 290 292 295 297 295 299 298 302 305 309 311 312 310 308 310 313 315
222 222 223 225 227 230 232 236 241 244 245 248 252 256 257 259 260 264 267 274 278 280 284 285 287 293 293 293 294 295 291 291 293 293 301 301 301 308 313 311 319 315 310 308 309 310 315
224 225 227 228 229 230 233 236 238 243 246 248 251 256 258 258 258 263 267 272 277 281 283 284 293 301 295 293 289 288 288 291 295 296 302 300 302 308 312 308 312 307 304 307 308 312 314
Height
5771 5771 5773 5774 5776 5776 5778 5780 5780 5782 5784 5788 5792 5797 5801 5805 5809 5812 5816 5820 5824 5827 5828 5830 5832 5833 5834 5833 5832 5832 5831 5832 5829 5832 5830 5833 5828 5830 5826 5828 5827 5829 5830 5829 5830 5828 5828
5770 5770 5772 5774 5776 5777 5778 5779 5782 5784 5789 5793 5796 5800 5804 5807 5812 5815 5820 5824 5827 5829 5831 5833 5834 5835 5836 5835 5836 5835 5833 5834 5836 5835 5834 5833 5832 5833 5828 5829 5829 5830 5831 5830 5830 5829 5828
5769 5770 5771 5774 5775 5777 5779 5780 5783 5788 5792 5796 5800 5804 5808 5812 5816 5819 5823 5826 5829 5831 5833 5835 5836 5837 5837 5837 5837 5836 5836 5838 5837 5836 5835 5833 5832 5832 5831 5831 5830 5831 5831 5831 5829 5830 5828
5768 5770 5771 5773 5775 5777 5780 5782 5787 5791 5796 5800 5804 5808 5812 5815 5818 5822 5825 5828 5830 5832 5834 5836 5837 5838 5837 5837 5838 5838 5839 5838 5837 5837 5836 5835 5833 5832 5832 5831 5831 5831 5831 5830 5830 5829 5828
5768 5769 5770 5772 5775 5778 5780 5785 5790 5795 5799 5803 5807 5811 5814 5818 5821 5824 5828 5830 5832 5834 5835 5837 5838 5838 5840 5840 5840 5839 5839 5839 5838 5838 5837 5836 5834 5833 5833 5832 5831 5831 5829 5828 5828 5827 5826
5767 5770 5771 5773 5776 5779 5783 5788 5793 5798 5802 5806 5810 5813 5817 5821 5824 5827 5829 5832 5833 5835 5837 5838 5839 5841 5841 5841 5840 5840 5839 5839 5837 5836 5836 5835 5835 5835 5834 5833 5830 5829 5829 5827 5825 5825 5823
5768 5771 5772 5774 5778 5781 5785 5791 5796 5800 5804 5808 5812 5815 5819 5823 5826 5829 5832 5833 5836 5837 5837 5838 5840 5840 5840 5840 5840 5839 5839 5837 5837 5837 5837 5836 5835 5833 5832 5830 5828 5828 5827 5826 5824 5822 5823
5767 5770 5772 5775 5779 5783 5788 5793 5797 5802 5806 5811 5815 5818 5820 5824 5827 5829 5831 5832 5834 5837 5837 5838 5838 5838 5838 5837 5838 5838 5838 5837 5837 5836 5836 5836 5833 5831 5830 5828 5827 5827 5826 5825 5823 5821 5821
5767 5770 5773 5776 5780 5784 5789 5794 5798 5803 5807 5811 5815 5818 5821 5823 5826 5828 5830 5832 5833 5834 5836 5836 5836 5836 5836 5836 5836 5836 5836 5835 5835 5834 5834 5834 5833 5831 5830 5828 5827 5824 5824 5822 5822 5820 5817
5766 5769 5773 5776 5780 5785 5790 5794 5799 5803 5807 5811 5814 5817 5820 5823 5826 5827 5828 5830 5831 5832 5833 5835 5834 5834 5835 5834 5834 5834 5834 5835 5834 5833 5832 5832 5830 5829 5826 5825 5825 5822 5821 5819 5818 5817 5814
5766 5769 5772 5777 5780 5785 5791 5795 5800 5803 5807 5810 5813 5816 5819 5821 5822 5824 5826 5827 5828 5830 5831 5832 5831 5832 5832 5833 5833 5832 5832 5832 5831 5831 5831 5830 5828 5825 5822 5820 5820 5820 5818 5815 5814 5812 5810
5764 5768 5771 5776 5781 5785 5790 5794 5798 5802 5805 5808 5811 5814 5816 5818 5819 5821 5822 5823 5825 5827 5827 5828 5827 5828 5828 5828 5828 5829 5829 5829 5828 5827 5826 5826 5824 5822 5820 5816 5816 5814 5814 5811 5809 5808 5807
5763 5768 5772 5776 5780 5784 5789 5793 5796 5799 5802 5805 5808 5810 5812 5814 5815 5817 5818 5820 5822 5822 5824 5825 5823 5824 5825 5825 5824 5826 5827 5825 5823 5823 5821 5821 5821 5819 5817 5814 5811 5810 5810 5808 5806 5804 5801
5762 5766 5771 5775 5779 5784 5788 5791 5794 5796 5799 5802 5804 5806 5808 5810 5811 5813 5814 5816 5817 5819 5820 5819 5820 5820 5822 5823 5821 5821 5822 5820 5818 5817 5816 5815 5816 5815 5812 5811 5808 5806 5805 5803 5800 5799 5799
5760 5765 5770 5774 5778 5782 5786 5788 5792 5794 5797 5799 5801 5804 5806 5808 5809 5810 5812 5813 5814 5815 5816 5816 5816 5818 5819 5818 5817 5816 5816 5814 5812 5812 5812 5810 5808 5808 5807 5806 5805 5802 5800 5798 5796 5792 5790
5757 5762 5767 5772 5777 5780 5784 5787 5790 5792 5794 5797 5799 5802 5804 5805 5807 5809 5810 5811 5811 5811 5811 5813 5813 5813 5814 5812 5812 5813 5812 5810 5809 5808 5806 5806 5805 5803 5802 5801 5800 5798 5797 5791 5786 5782 5778
5754 5759 5765 5769 5773 5778 5782 5785 5788 5790 5793 5795 5797 5799 5801 5803 5805 5807 5808 5808 5809 5809 5809 5810 5809 5809 5810 5809 5809 5810 5809 5808 5807 5806 5804 5803 5802 5801 5798 5797 5795 5795 5790 5783 5778 5776 5770
5750 5756 5761 5766 5771 5775 5779 5782 5786 5789 5791 5793 5794 5796 5798 5800 5803 5803 5805 5805 5806 5806 5807 5807 5807 5807 5807 5807 5807 5806 5806 5805 5804 5802 5800 5799 5798 5795 5792 5788 5787 5788 5785 5779 5770 5766 5764
5746 5752 5757 5763 5768 5772 5776 5779 5783 5786 5789 5791 5792 5794 5795 5797 5799 5800 5801 5802 5802 5803 5803 5803 5804 5804 5805 5804 5804 5802 5802 5801 5799 5796 5794 5794 5793 5792 5786 5784 5780 5781 5780 5770 5761 5756 5754
5741 5747 5753 5758 5763 5768 5772 5775 5779 5783 5786 5788 5790 5791 5793 5795 5796 5797 5798 5799 5800 5800 5800 5801 5801 5801 5800 5800 5800 5798 5796 5795 5793 5792 5790 5788 5786 5785 5783 5778 5771 5777 5776 5767 5758 5754 5746
5737 5743 5748 5754 5758 5763 5768 5771 5775 5779 5782 5785 5786 5788 5790 5791 5793 5793 5794 5794 5796 5797 5797 5796 5797 5797 5796 5795 5793 5792 5790 5788 5786 5785 5783 5782 5780 5778 5776 5771 5766 5767 5760 5755 5751 5749 5739
5731 5737 5742 5748 5753 5758 5762 5766 5770 5774 5778 5781 5783 5785 5786 5788 5789 5789 5791 5792 5794 5793 5793 5792 5793 5792 5793 5791 5789 5788 5786 5783 5782 5779 5775 5772 5769 5764 5769 5761 5756 5758 5751 5745 5741 5735 5729
5725 5731 5736 5741 5747 5752 5756 5761 5764 5768 5772 5775 5778 5780 5782 5784 5785 5786 5787 5788 5789 5788 5788 5789 5788 5786 5785 5783 5783 5782 5780 5777 5775 5773 5770 5766 5760 5755 5755 5752 5747 5753 5743 5737 5731 5728 5721
5718 5724 5730 5735 5740 5746 5751 5755 5759 5763 5766 5770 5774 5776 5778 5780 5781 5781 5782 5782 5783 5783 5782 5782 5783 5781 5779 5778 5776 5775 5772 5769 5765 5764 5762 5759 5753 5748 5743 5740 5735 5741 5730 5726 5719 5715 5709
5711 5717 5723 5729 5734 5739 5744 5749 5752 5756 5760 5763 5767 5771 5772 5774 5775 5775 5776 5776 5776 5776 5776 5773 5776 5774 5772 5770 5766 5765 5764 5761 5757 5757 5754 5749 5744 5739 5736 5728 5724 5730 5718 5713 5705 5701 5696
5704 5710 5716 5722 5727 5733 5738 5742 5746 5750 5754 5757 5760 5763 5765 5767 5769 5768 5769 5769 5769 5768 5768 5765 5765 5764 5763 5759 5755 5752 5752 5749 5748 5747 5745 5741 5736 5733 5727 5720 5714 5716 5707 5700 5693 5691 5684
5696 5702 5709 5714 5720 5725 5731 5736 5739 5742 5746 5750 5752 5755 5758 5759 5761 5761 5761 5761 5761 5760 5760 5758 5756 5755 5753 5749 5745 5742 5741 5739 5737 5736 5734 5732 5727 5724 5719 5713 5708 5706 5697 5688 5683 5678 5668
5688 5695 5701 5706 5712 5717 5722 5727 5731 5734 5738 5741 5744 5746 5749 5751 5751 5753 5752 5752 5751 5749 5749 5747 5746 5747 5742 5740 5736 5732 5729 5729 5728 5725 5724 5720 5715 5712 5707 5698 5695 5688 5679 5675 5669 5661 5655
5680 5687 5693 5698 5703 5708 5713 5718 5722 5725 5728 5731 5734 5735 5737 5739 5741 5742 5743 5742 5740 5741 5737 5734 5735 5733 5726 5727 5725 5720 5718 5715 5715 5712 5713 5708 5706 5703 5700 5690 5685 5676 5669 5663 5653 5647 5642